N2UGS-WX Weather Reports


Display with metric or nautical units.
time (UTC)temp
F
wind
direction
speed
MPH
gust
MPH
rain 1hr
in
rain 24hr
in
rain mn
in
humidity
%
barometer
mb
20260906000003 69 295 0.0 0.0 0.00 0.00 0.00 67 1015.2
20260905234502 70 282 0.0 0.0 0.00 0.00 0.00 65 1015.6
20260905233001 71 243 0.0 1.0 0.00 0.00 0.00 63 1015.6
20260905231503 72 20 0.0 4.0 0.00 0.00 0.00 59 1015.2
20260905230003 73 63 2.0 5.0 0.00 0.00 0.00 56 1015.2
20260905224901 75 5 2.0 4.0 0.00 0.00 0.00 55 1015.2
20260905223402 79 76 2.0 4.0 0.00 0.00 0.00 48 1015.2
20260905221902 80 6 1.0 2.0 0.00 0.00 0.00 49 1015.2
20260905220901 79 354 3.0 6.0 0.00 0.00 0.00 49 1015.2
20260905215402 80 69 1.0 6.0 0.00 0.00 0.00 49 1015.2
20260905213902 77 342 2.0 4.0 0.00 0.00 0.00 53 1015.2
20260905212402 78 30 9.0 9.0 0.00 0.00 0.00 49 1014.9
20260905210901 78 29 3.0 6.0 0.00 0.00 0.00 52 1015.2
20260905205402 77 26 2.0 9.0 0.00 0.00 0.00 54 1014.9
20260905203902 78 6 3.0 5.0 0.00 0.00 0.00 52 1014.9
20260905202402 76 92 7.0 7.0 0.00 0.00 0.00 55 1014.9
20260905201003 77 5 5.0 7.0 0.00 0.00 0.00 53 1014.9
20260905195903 80 25 4.0 4.0 0.00 0.00 0.00 51 1014.9
20260905194402 77 353 6.0 6.0 0.00 0.00 0.00 54 1014.9
20260905193402 78 41 6.0 7.0 0.00 0.00 0.00 53 1014.9
20260905192002 81 325 4.0 8.0 0.00 0.00 0.00 48 1015.2
20260905190902 79 7 4.0 7.0 0.00 0.00 0.00 54 1015.2
20260905185501 76 89 3.0 5.0 0.00 0.00 0.00 57 1015.2
20260905183902 77 161 2.0 6.0 0.00 0.00 0.00 55 1015.2
20260905182502 76 32 5.0 9.0 0.00 0.00 0.00 54 1015.2
20260905181002 78 43 2.0 7.0 0.00 0.00 0.00 53 1014.9
20260905175502 80 320 5.0 8.0 0.00 0.00 0.00 48 1015.2
20260905174502 79 242 4.0 8.0 0.00 0.00 0.00 49 1015.2
20260905173002 77 345 5.0 7.0 0.00 0.00 0.00 54 1015.2
20260905171503 77 270 0.0 6.0 0.00 0.00 0.00 51 1015.2
20260905170004 75 45 7.0 11.0 0.00 0.00 0.00 56 1015.2
20260905165002 76 327 2.0 7.0 0.00 0.00 0.00 56 1015.2
20260905163902 76 323 5.0 6.0 0.00 0.00 0.00 57 1015.2
20260905162502 74 9 5.0 9.0 0.00 0.00 0.00 60 1015.6
20260905161002 75 19 5.0 8.0 0.00 0.00 0.00 61 1015.2
20260905155902 78 75 6.0 7.0 0.00 0.00 0.00 57 1015.2
20260905154402 75 47 3.0 6.0 0.00 0.00 0.00 60 1015.2
20260905153002 72 19 7.0 11.0 0.00 0.00 0.00 64 1015.6
20260905152001 74 32 4.0 9.0 0.00 0.00 0.00 64 1015.6
20260905150902 75 355 4.0 7.0 0.00 0.00 0.00 64 1015.6
20260905145901 73 26 4.0 8.0 0.00 0.00 0.00 67 1015.6
20260905144402 70 55 2.0 6.0 0.00 0.00 0.00 71 1015.6
20260905142902 71 39 4.0 5.0 0.00 0.00 0.00 71 1015.6
20260905141502 70 5 7.0 7.0 0.00 0.00 0.00 74 1015.6
20260905140003 69 266 2.0 5.0 0.00 0.00 0.00 77 1015.6
20260905135002 69 313 4.0 9.0 0.00 0.00 0.00 78 1015.6
20260905133502 68 110 2.0 6.0 0.00 0.00 0.00 83 1015.6
20260905132502 67 48 5.0 5.0 0.00 0.00 0.00 85 1015.6
20260905131002 65 15 3.0 5.0 0.00 0.00 0.00 94 1015.6
20260905125902 64 292 2.0 5.0 0.00 0.00 0.00 98 1015.9
20260905124502 63 3 1.0 4.0 0.00 0.00 0.00 99 1015.9
20260905123002 63 1 3.0 5.0 0.00 0.00 0.00 99 1015.9
20260905121502 62 355 0.0 3.0 0.00 0.00 0.00 99 1015.9
20260905120502 61 347 0.0 0.0 0.00 0.00 0.00 99 1015.9
20260905115002 59 319 0.0 0.0 0.00 0.00 0.00 99 1015.6
20260905113503 58 302 0.0 0.0 0.00 0.00 0.00 99 1015.6
20260905112501 58 268 0.0 0.0 0.00 0.00 0.00 98 1015.2
20260905111001 57 291 0.0 0.0 0.00 0.00 0.00 98 1014.9
20260905105502 57 325 0.0 0.0 0.00 0.00 0.00 98 1014.9
20260905104402 58 343 0.0 0.0 0.00 0.00 0.00 98 1014.9
20260905102902 57 262 0.0 0.0 0.00 0.00 0.00 98 1014.9
20260905101402 57 311 0.0 0.0 0.00 0.00 0.00 97 1014.9
20260905095902 58 314 0.0 0.0 0.00 0.00 0.00 97 1014.9
20260905094402 58 316 0.0 0.0 0.00 0.00 0.00 97 1014.9
20260905093402 58 4 0.0 0.0 0.00 0.00 0.00 97 1014.9
20260905091902 59 315 0.0 0.0 0.00 0.00 0.00 97 1014.6
20260905090402 59 306 0.0 0.0 0.00 0.00 0.00 97 1014.6
20260905084902 59 298 0.0 0.0 0.00 0.00 0.00 96 1014.2
20260905083402 59 324 0.0 0.0 0.00 0.00 0.00 96 1014.2
20260905081903 59 312 0.0 0.0 0.00 0.00 0.00 96 1014.2
20260905080402 60 277 0.0 0.0 0.00 0.00 0.00 96 1014.2
20260905075401 60 312 0.0 0.0 0.00 0.00 0.00 95 1014.2
20260905073902 61 301 0.0 0.0 0.00 0.00 0.00 95 1014.6
20260905072502 61 277 0.0 0.0 0.00 0.00 0.00 95 1014.6
20260905071402 61 114 0.0 0.0 0.00 0.00 0.00 95 1014.6
20260905070003 62 230 0.0 0.0 0.00 0.00 0.00 94 1014.6
20260905065002 62 338 0.0 0.0 0.00 0.00 0.00 94 1014.9
20260905063502 62 327 0.0 0.0 0.00 0.00 0.00 93 1014.6
20260905062502 62 251 0.0 0.0 0.00 0.00 0.00 93 1014.9
20260905061402 62 298 0.0 0.0 0.00 0.00 0.00 93 1014.9
20260905060402 63 308 0.0 0.0 0.00 0.00 0.00 93 1014.9
20260905055003 63 313 0.0 0.0 0.00 0.00 0.00 92 1014.9
20260905053502 63 306 0.0 0.0 0.00 0.00 0.00 92 1014.9
20260905052502 63 356 0.0 1.0 0.00 0.00 0.00 91 1014.9
20260905051001 63 337 0.0 2.0 0.00 0.00 0.00 90 1014.9
20260905045503 64 38 0.0 0.0 0.00 0.00 0.00 89 1014.9
20260905044402 64 287 0.0 0.0 0.00 0.00 0.00 88 1014.9
20260905043002 65 267 0.0 0.0 0.00 0.00 0.00 86 1014.9
20260905041502 65 307 0.0 0.0 0.00 0.00 0.00 84 1014.9
20260905040003 67 296 0.0 0.0 0.00 0.00 0.00 83 1014.9
20260905034403 67 317 0.0 0.0 0.00 0.00 0.01 82 1015.2
20260905032901 66 322 0.0 0.0 0.00 0.00 0.01 83 1015.2
20260905031501 67 329 0.0 2.0 0.00 0.00 0.01 85 1014.9
20260905025902 67 305 0.0 0.0 0.00 0.00 0.01 87 1014.9
20260905024502 67 317 0.0 0.0 0.00 0.00 0.01 87 1014.9
20260905022902 68 348 0.0 0.0 0.00 0.00 0.01 86 1014.9
20260905021502 69 309 0.0 0.0 0.00 0.00 0.01 84 1014.9
20260905020402 70 22 0.0 0.0 0.00 0.00 0.01 83 1014.9
20260905015002 71 323 0.0 0.0 0.00 0.00 0.01 82 1014.9
20260905013503 71 333 0.0 2.0 0.00 0.00 0.01 83 1014.9
20260905012003 71 325 0.0 1.0 0.00 0.00 0.01 83 1015.2
20260905010502 71 303 0.0 1.0 0.00 0.00 0.01 82 1015.2
20260905005502 71 302 0.0 0.0 0.00 0.00 0.01 80 1015.2
20260905004001 71 354 0.0 0.0 0.00 0.00 0.01 77 1014.9